Back to catalog

SL-12 R/B(2)

AliveGEO
NORAD 25645·ROCKET BODY·🇷🇺 Russia

Launched Feb 28, 1999 from Baikonur Cosmodrome

Loading…

TLE

FreshSource: Space-Track

Epoch: Sep 13, 2026, 19:21 UTC

1 25645U 99010D   26256.80629486 -.00000036  00000-0  00000-0 0  9995
2 25645  16.4710   3.6791 0020442 340.0963  16.0043  0.98043027 98561

Track SL-12 R/B(2) in real time with AllMySat

Download on the App Store